Location: La Bilong�re
(48.1297°N, 1.4584°W)
Time: 07:31:59
(UTC+00:00)

USA 307 - Pass Details

Date: 03 March 2021
Orbit: 567 x 577 km, 54.0° (Epoch: 13 April)

Event Time Altitude Azimuth Distance (km) Brightness Sun altitude
Rises 18:14:16 0° 263° (W) 2,783 9.6 -4.3°
Reaches altitude 10° 18:16:36 10° 270° (W) 1,885 7.5 -4.7°
Maximum altitude 18:20:45 46° 344° (NNW) 772 3.7 -5.4°
Drops below altitude 10° 18:24:53 10° 59° (ENE) 1,882 5.0 -6.1°
Enters shadow 18:25:53 - 62° (ENE) 2,259 5.4 -6.2°
